Time,TemperatureF,DewpointF,PressureIn,WindDirection,WindDirectionDegrees,WindSpeedMPH,WindSpeedGustMPH,Humidity,HourlyPrecipIn,Conditions,Clouds,dailyrainin,SoftwareType,DateUTC
2013-08-03 00:12:00,70.0,69.0,29.91,SW,226,1.0,2.0,97,0.00,,,1.36,weatherlink.com 1.10,2013-08-03 05:12:00,
2013-08-03 00:27:00,69.8,69.0,29.91,SW,236,0.0,1.0,97,0.00,,,1.36,weatherlink.com 1.10,2013-08-03 05:27:00,
2013-08-03 00:42:00,69.7,69.0,29.92,WSW,257,1.0,1.0,97,0.00,,,1.36,weatherlink.com 1.10,2013-08-03 05:42:00,
2013-08-03 00:57:00,70.1,69.0,29.93,WNW,286,0.0,2.0,97,0.00,,,0.00,weatherlink.com 1.10,2013-08-03 05:57:00,
2013-08-03 01:12:00,70.1,69.0,29.93,NNE,15,2.0,4.0,97,0.00,,,0.00,weatherlink.com 1.10,2013-08-03 06:12:00,
2013-08-03 01:27:00,69.9,69.0,29.92,WNW,302,2.0,5.0,97,0.00,,,0.00,weatherlink.com 1.10,2013-08-03 06:27:00,
2013-08-03 01:42:00,69.9,69.0,29.91,WNW,295,1.0,4.0,98,0.00,,,0.00,weatherlink.com 1.10,2013-08-03 06:42:00,
2013-08-03 01:57:00,69.8,69.0,29.91,WNW,293,0.0,3.0,98,0.00,,,0.00,weatherlink.com 1.10,2013-08-03 06:57:00,
2013-08-03 02:12:00,69.8,69.0,29.92,NW,318,0.0,1.0,98,0.00,,,0.00,weatherlink.com 1.10,2013-08-03 07:12:00,
2013-08-03 02:27:00,69.7,69.0,29.91,ENE,75,2.0,5.0,98,0.00,,,0.00,weatherlink.com 1.10,2013-08-03 07:27:00,
2013-08-03 02:42:00,69.6,69.0,29.91,East,89,1.0,4.0,98,0.00,,,0.00,weatherlink.com 1.10,2013-08-03 07:42:00,
2013-08-03 02:57:00,69.4,69.0,29.91,NE,43,2.0,3.0,98,0.00,,,0.00,weatherlink.com 1.10,2013-08-03 07:57:00,
2013-08-03 03:12:00,69.1,69.0,29.89,ENE,57,3.0,6.0,98,0.00,,,0.00,weatherlink.com 1.10,2013-08-03 08:12:00,
2013-08-03 03:27:00,69.0,69.0,29.89,NE,41,3.0,8.0,98,0.00,,,0.00,weatherlink.com 1.10,2013-08-03 08:27:00,
2013-08-03 03:42:00,68.9,68.0,29.90,ENE,77,1.0,4.0,98,0.00,,,0.00,weatherlink.com 1.10,2013-08-03 08:42:00,
2013-08-03 03:57:00,68.9,68.0,29.90,ENE,75,3.0,4.0,98,0.00,,,0.00,weatherlink.com 1.10,2013-08-03 08:57:00,
2013-08-03 04:13:00,68.8,68.0,29.91,ENE,63,0.0,4.0,98,0.00,,,0.00,weatherlink.com 1.10,2013-08-03 09:13:00,
2013-08-03 04:28:00,68.7,68.0,29.92,ENE,58,6.0,8.0,98,0.00,,,0.00,weatherlink.com 1.10,2013-08-03 09:28:00,
2013-08-03 04:43:00,68.6,68.0,29.92,NE,49,3.0,3.0,98,0.00,,,0.00,weatherlink.com 1.10,2013-08-03 09:43:00,
2013-08-03 04:58:00,68.4,68.0,29.93,East,81,0.0,3.0,98,0.00,,,0.00,weatherlink.com 1.10,2013-08-03 09:58:00,
2013-08-03 05:12:00,68.2,68.0,29.94,ENE,70,4.0,5.0,98,0.00,,,0.00,weatherlink.com 1.10,2013-08-03 10:12:00,
2013-08-03 05:28:00,68.1,68.0,29.93,East,93,7.0,7.0,98,0.00,,,0.00,weatherlink.com 1.10,2013-08-03 10:28:00,
2013-08-03 05:43:00,68.0,68.0,29.94,East,81,3.0,7.0,98,0.00,,,0.00,weatherlink.com 1.10,2013-08-03 10:43:00,
2013-08-03 05:58:00,67.9,67.0,29.94,East,82,3.0,5.0,98,0.00,,,0.00,weatherlink.com 1.10,2013-08-03 10:58:00,
2013-08-03 06:13:00,67.9,67.0,29.94,NNE,32,3.0,5.0,98,0.00,,,0.00,weatherlink.com 1.10,2013-08-03 11:13:00,
2013-08-03 06:28:00,67.7,67.0,29.94,ENE,68,4.0,6.0,98,0.00,,,0.00,weatherlink.com 1.10,2013-08-03 11:28:00,
2013-08-03 06:43:00,67.6,67.0,29.95,ENE,58,2.0,6.0,98,0.00,,,0.00,weatherlink.com 1.10,2013-08-03 11:43:00,
2013-08-03 06:58:00,67.6,67.0,29.95,NNE,33,0.0,5.0,98,0.00,,,0.00,weatherlink.com 1.10,2013-08-03 11:58:00,
2013-08-03 07:13:00,67.7,67.0,29.96,East,84,3.0,4.0,98,0.01,,,0.01,weatherlink.com 1.10,2013-08-03 12:13:00,
2013-08-03 07:28:00,67.9,67.0,29.96,East,79,2.0,3.0,98,0.01,,,0.01,weatherlink.com 1.10,2013-08-03 12:28:00,
2013-08-03 07:43:00,68.1,68.0,29.97,North,5,1.0,3.0,98,0.01,,,0.01,weatherlink.com 1.10,2013-08-03 12:43:00,
2013-08-03 07:58:00,68.3,68.0,29.98,East,101,4.0,5.0,97,0.01,,,0.01,weatherlink.com 1.10,2013-08-03 12:58:00,
2013-08-03 08:13:00,68.7,68.0,29.98,ENE,58,7.0,-999.0,97,-99.99,,,0.01,weatherlink.com 1.10,2013-08-03 13:13:00,
2013-08-03 08:28:00,69.1,68.0,29.98,ENE,61,4.0,10.0,95,0.00,,,0.01,weatherlink.com 1.10,2013-08-03 13:28:00,
2013-08-03 08:43:00,69.6,68.0,30.00,East,81,4.0,7.0,94,0.00,,,0.01,weatherlink.com 1.10,2013-08-03 13:43:00,
2013-08-03 08:58:00,69.9,69.0,30.00,East,80,2.0,7.0,95,0.00,,,0.01,weatherlink.com 1.10,2013-08-03 13:58:00,
2013-08-03 09:13:00,70.3,68.0,30.00,ENE,77,6.0,6.0,93,0.00,,,0.01,weatherlink.com 1.10,2013-08-03 14:13:00,
2013-08-03 09:28:00,70.7,68.0,30.00,East,87,3.0,5.0,92,0.00,,,0.01,weatherlink.com 1.10,2013-08-03 14:28:00,
2013-08-03 09:43:00,71.7,69.0,30.01,East,81,3.0,5.0,91,0.00,,,0.01,weatherlink.com 1.10,2013-08-03 14:43:00,
2013-08-03 09:58:00,72.4,69.0,30.02,WSW,238,0.0,6.0,90,0.00,,,0.01,weatherlink.com 1.10,2013-08-03 14:58:00,
2013-08-03 10:13:00,72.6,69.0,30.03,SE,136,1.0,2.0,89,0.00,,,0.01,weatherlink.com 1.10,2013-08-03 15:13:00,
2013-08-03 10:28:00,74.4,70.0,30.03,East,80,0.0,3.0,85,0.00,,,0.01,weatherlink.com 1.10,2013-08-03 15:28:00,
2013-08-03 10:43:00,76.2,70.0,30.03,SE,131,1.0,3.0,81,0.00,,,0.01,weatherlink.com 1.10,2013-08-03 15:43:00,
2013-08-03 10:58:00,76.5,71.0,30.03,WSW,246,2.0,2.0,82,0.00,,,0.01,weatherlink.com 1.10,2013-08-03 15:58:00,
2013-08-03 11:13:00,77.3,70.0,30.03,WNW,295,1.0,3.0,78,0.00,,,0.01,weatherlink.com 1.10,2013-08-03 16:13:00,
2013-08-03 11:28:00,76.2,70.0,30.04,ESE,115,3.0,5.0,80,0.00,,,0.01,weatherlink.com 1.10,2013-08-03 16:28:00,
2013-08-03 11:43:00,76.4,70.0,30.03,WNW,290,3.0,3.0,81,0.00,,,0.01,weatherlink.com 1.10,2013-08-03 16:43:00,
2013-08-03 11:58:00,76.9,69.0,30.03,WSW,240,2.0,3.0,77,0.00,,,0.01,weatherlink.com 1.10,2013-08-03 16:58:00,
2013-08-03 12:13:00,77.1,71.0,30.03,WSW,257,1.0,4.0,80,0.00,,,0.01,weatherlink.com 1.10,2013-08-03 17:13:00,
2013-08-03 12:29:00,78.4,71.0,30.02,WSW,250,0.0,3.0,77,0.00,,,0.01,weatherlink.com 1.10,2013-08-03 17:29:00,
2013-08-03 12:44:00,78.3,69.0,30.03,WNW,294,1.0,5.0,74,0.00,,,0.01,weatherlink.com 1.10,2013-08-03 17:44:00,
2013-08-03 12:59:00,78.1,70.0,30.03,ENE,71,3.0,5.0,76,0.00,,,0.01,weatherlink.com 1.10,2013-08-03 17:59:00,
2013-08-03 13:13:00,79.4,70.0,30.03,ENE,72,4.0,7.0,73,0.00,,,0.01,weatherlink.com 1.10,2013-08-03 18:13:00,
2013-08-03 13:29:00,79.1,71.0,30.03,East,91,4.0,7.0,75,0.00,,,0.01,weatherlink.com 1.10,2013-08-03 18:29:00,
2013-08-03 13:44:00,78.9,71.0,30.02,SW,236,5.0,6.0,76,0.00,,,0.01,weatherlink.com 1.10,2013-08-03 18:44:00,
2013-08-03 13:58:00,78.8,71.0,30.02,WNW,299,2.0,6.0,77,0.00,,,0.01,weatherlink.com 1.10,2013-08-03 18:58:00,
2013-08-03 14:14:00,79.0,71.0,30.02,WNW,298,2.0,5.0,76,0.00,,,0.01,weatherlink.com 1.10,2013-08-03 19:14:00,
2013-08-03 14:29:00,79.5,71.0,30.03,NW,304,1.0,6.0,75,0.00,,,0.01,weatherlink.com 1.10,2013-08-03 19:29:00,
2013-08-03 14:44:00,80.3,71.0,30.03,NNW,338,2.0,5.0,73,0.00,,,0.01,weatherlink.com 1.10,2013-08-03 19:44:00,
2013-08-03 14:59:00,80.2,71.0,30.02,NE,40,4.0,6.0,74,0.00,,,0.01,weatherlink.com 1.10,2013-08-03 19:59:00,
2013-08-03 15:14:00,79.2,70.0,30.02,ENE,75,4.0,6.0,73,0.00,,,0.01,weatherlink.com 1.10,2013-08-03 20:14:00,
2013-08-03 15:29:00,80.8,72.0,30.02,West,259,2.0,6.0,75,0.00,,,0.01,weatherlink.com 1.10,2013-08-03 20:29:00,
2013-08-03 15:44:00,79.9,70.0,30.02,ENE,61,2.0,12.0,71,0.00,,,0.01,weatherlink.com 1.10,2013-08-03 20:44:00,
2013-08-03 15:59:00,80.0,69.0,30.02,ENE,57,2.0,7.0,70,0.00,,,0.01,weatherlink.com 1.10,2013-08-03 20:59:00,
2013-08-03 16:14:00,79.9,70.0,30.02,East,86,3.0,5.0,71,0.00,,,0.01,weatherlink.com 1.10,2013-08-03 21:14:00,
2013-08-03 16:29:00,80.5,68.0,30.02,ENE,69,5.0,8.0,66,0.00,,,0.01,weatherlink.com 1.10,2013-08-03 21:29:00,
2013-08-03 16:44:00,79.7,69.0,30.02,SE,128,3.0,11.0,69,0.00,,,0.01,weatherlink.com 1.10,2013-08-03 21:44:00,
2013-08-03 16:59:00,79.2,69.0,30.03,NE,53,1.0,7.0,71,0.00,,,0.01,weatherlink.com 1.10,2013-08-03 21:59:00,
2013-08-03 17:14:00,80.4,69.0,30.03,ENE,64,4.0,8.0,69,0.00,,,0.01,weatherlink.com 1.10,2013-08-03 22:14:00,
2013-08-03 17:29:00,80.0,68.0,30.02,NNE,20,5.0,10.0,67,0.00,,,0.01,weatherlink.com 1.10,2013-08-03 22:29:00,
2013-08-03 17:44:00,79.9,67.0,30.02,East,99,5.0,11.0,65,0.00,,,0.01,weatherlink.com 1.10,2013-08-03 22:44:00,
2013-08-03 17:59:00,80.0,67.0,30.02,ENE,61,5.0,8.0,65,0.00,,,0.01,weatherlink.com 1.10,2013-08-03 22:59:00,
2013-08-03 18:14:00,79.7,66.0,30.02,NNE,24,3.0,9.0,64,0.00,,,0.01,weatherlink.com 1.10,2013-08-03 23:14:00,
2013-08-03 18:29:00,78.7,65.0,30.02,ENE,73,3.0,7.0,63,0.00,,,0.01,weatherlink.com 1.10,2013-08-03 23:29:00,
2013-08-03 18:44:00,77.8,66.0,30.03,SE,124,2.0,6.0,66,0.00,,,0.01,weatherlink.com 1.10,2013-08-03 23:44:00,
2013-08-03 18:59:00,77.2,65.0,30.03,ENE,68,2.0,6.0,65,0.00,,,0.01,weatherlink.com 1.10,2013-08-03 23:59:00,
2013-08-03 19:14:00,77.2,64.0,30.03,ENE,72,5.0,7.0,63,0.00,,,0.01,weatherlink.com 1.10,2013-08-04 00:14:00,
2013-08-03 19:29:00,76.4,63.0,30.03,ENE,76,3.0,7.0,64,0.00,,,0.01,weatherlink.com 1.10,2013-08-04 00:29:00,
2013-08-03 19:44:00,75.6,63.0,30.03,ENE,75,4.0,6.0,65,0.00,,,0.01,weatherlink.com 1.10,2013-08-04 00:44:00,
2013-08-03 19:59:00,74.9,63.0,30.03,ENE,69,4.0,5.0,66,0.00,,,0.01,weatherlink.com 1.10,2013-08-04 00:59:00,
2013-08-03 20:14:00,74.0,62.0,30.03,East,86,2.0,4.0,67,0.00,,,0.01,weatherlink.com 1.10,2013-08-04 01:14:00,
2013-08-03 20:29:00,73.5,63.0,30.04,ENE,65,3.0,6.0,69,0.00,,,0.01,weatherlink.com 1.10,2013-08-04 01:29:00,
2013-08-03 20:44:00,73.5,62.0,30.04,ENE,72,3.0,5.0,68,0.00,,,0.01,weatherlink.com 1.10,2013-08-04 01:44:00,
2013-08-03 20:59:00,73.3,62.0,30.04,ENE,71,2.0,6.0,68,0.00,,,0.01,weatherlink.com 1.10,2013-08-04 01:59:00,
2013-08-03 21:14:00,72.9,62.0,30.05,ENE,77,3.0,7.0,68,0.00,,,0.01,weatherlink.com 1.10,2013-08-04 02:14:00,
2013-08-03 21:29:00,72.9,61.0,30.06,ENE,67,5.0,6.0,66,0.00,,,0.01,weatherlink.com 1.10,2013-08-04 02:29:00,
2013-08-03 21:44:00,72.8,61.0,30.06,ENE,70,4.0,5.0,66,0.00,,,0.01,weatherlink.com 1.10,2013-08-04 02:44:00,
2013-08-03 21:59:00,72.2,61.0,30.06,ENE,71,5.0,7.0,68,0.00,,,0.01,weatherlink.com 1.10,2013-08-04 02:59:00,
2013-08-03 22:14:00,72.0,61.0,30.07,ENE,72,5.0,7.0,68,0.00,,,0.01,weatherlink.com 1.10,2013-08-04 03:14:00,
2013-08-03 22:29:00,71.7,61.0,30.07,ENE,71,5.0,7.0,68,0.00,,,0.01,weatherlink.com 1.10,2013-08-04 03:29:00,
2013-08-03 22:44:00,71.2,61.0,30.07,East,101,4.0,7.0,69,0.00,,,0.01,weatherlink.com 1.10,2013-08-04 03:44:00,
2013-08-03 22:59:00,70.9,60.0,30.07,ENE,77,5.0,8.0,69,0.00,,,0.01,weatherlink.com 1.10,2013-08-04 03:59:00,
2013-08-03 23:14:00,70.5,60.0,30.08,ENE,75,5.0,6.0,70,0.00,,,0.01,weatherlink.com 1.10,2013-08-04 04:14:00,
2013-08-03 23:29:00,70.4,60.0,30.08,NE,49,8.0,8.0,70,0.00,,,0.01,weatherlink.com 1.10,2013-08-04 04:29:00,
2013-08-03 23:44:00,70.5,60.0,30.09,ENE,68,8.0,8.0,69,0.00,,,0.01,weatherlink.com 1.10,2013-08-04 04:44:00,
2013-08-03 23:59:00,70.3,60.0,30.09,ENE,77,5.0,8.0,69,0.00,,,0.01,weatherlink.com 1.10,2013-08-04 04:59:00,